Location: *
(44.3925°N, 5.4708°E)
Time: 03:00:26
(UTC+00:00)

Cosmos 2056 Rocket - Pass Details

Date: 18 September 2019
Orbit: 742 x 800 km, 74.0° (Epoch: 18 October)

Event Time Altitude Azimuth Distance (km) Brightness Sun altitude
Rises 19:47:05 0° 202° (SSW) 3,292 6.7 -22.0°
Reaches altitude 10° 19:49:28 10° 203° (SSW) 2,368 6.0 -22.4°
Maximum altitude 19:54:53 81° 290° (WNW) 814 3.6 -23.3°
Drops below altitude 10° 20:00:19 10° 19° (NNE) 2,375 6.1 -24.1°
Sets 20:02:43 0° 21° (NNE) 3,304 6.9 -24.5°
